TimeEDT,TemperatureF,Dew PointF,Humidity,Sea Level PressureIn,VisibilityMPH,Wind Direction,Wind SpeedMPH,Gust SpeedMPH,PrecipitationIn,Events,Conditions,WindDirDegrees,DateUTC
12:54 AM,73.9,71.1,91,30.19,10.0,South,3.5,-,N/A,,Clear,180,2013-07-03 04:54:00
1:54 AM,73.9,70.0,87,30.20,10.0,Variable,3.5,-,0.00,,Clear,0,2013-07-03 05:54:00
2:54 AM,73.0,70.0,90,30.19,10.0,Calm,Calm,-,N/A,,Clear,0,2013-07-03 06:54:00
3:54 AM,73.0,71.1,93,30.19,10.0,South,4.6,-,N/A,,Clear,180,2013-07-03 07:54:00
4:54 AM,73.0,71.1,93,30.19,10.0,Calm,Calm,-,N/A,,Clear,0,2013-07-03 08:54:00
5:54 AM,73.0,71.1,93,30.20,10.0,Calm,Calm,-,N/A,,Clear,0,2013-07-03 09:54:00
6:15 AM,73.9,71.1,91,30.20,10.0,Calm,Calm,-,N/A,,Mostly Cloudy,0,2013-07-03 10:15:00
6:30 AM,73.9,71.1,91,30.20,10.0,Calm,Calm,-,N/A,,Overcast,0,2013-07-03 10:30:00
6:54 AM,73.9,72.0,93,30.21,10.0,Calm,Calm,-,N/A,,Overcast,0,2013-07-03 10:54:00
7:32 AM,75.0,73.0,94,30.22,10.0,South,4.6,-,N/A,,Overcast,180,2013-07-03 11:32:00
7:54 AM,75.9,73.9,94,30.23,10.0,SSW,5.8,-,N/A,,Overcast,210,2013-07-03 11:54:00
8:16 AM,75.9,73.9,94,30.23,10.0,Variable,5.8,-,N/A,,Overcast,0,2013-07-03 12:16:00
8:34 AM,75.9,73.9,94,30.23,10.0,SSW,5.8,-,N/A,,Overcast,200,2013-07-03 12:34:00
8:54 AM,77.0,73.9,90,30.24,10.0,SSW,5.8,-,N/A,,Overcast,200,2013-07-03 12:54:00
9:47 AM,78.1,73.9,87,30.24,10.0,SSW,6.9,-,N/A,,Mostly Cloudy,210,2013-07-03 13:47:00
9:54 AM,78.1,73.9,87,30.25,10.0,South,6.9,-,N/A,,Overcast,190,2013-07-03 13:54:00
10:18 AM,79.0,75.0,88,30.24,10.0,South,5.8,-,N/A,,Overcast,170,2013-07-03 14:18:00
10:54 AM,78.1,75.0,90,30.25,10.0,SSE,9.2,-,0.01,,Overcast,160,2013-07-03 14:54:00
11:21 AM,79.0,77.0,94,30.23,10.0,SE,4.6,-,0.00,,Overcast,140,2013-07-03 15:21:00
11:54 AM,82.0,75.9,82,30.23,10.0,South,12.7,-,0.00,,Mostly Cloudy,180,2013-07-03 15:54:00
12:12 PM,82.0,75.9,82,30.22,10.0,South,9.2,18.4,N/A,,Mostly Cloudy,190,2013-07-03 16:12:00
12:24 PM,82.0,75.0,79,30.22,10.0,South,12.7,-,N/A,,Mostly Cloudy,180,2013-07-03 16:24:00
12:54 PM,82.0,75.9,82,30.22,10.0,SSE,10.4,-,N/A,,Mostly Cloudy,160,2013-07-03 16:54:00
1:54 PM,82.9,75.9,79,30.21,10.0,SSE,10.4,-,N/A,,Scattered Clouds,150,2013-07-03 17:54:00
2:54 PM,82.0,75.0,79,30.20,10.0,South,8.1,-,N/A,,Clear,180,2013-07-03 18:54:00
3:54 PM,84.0,75.9,76,30.20,10.0,South,12.7,18.4,N/A,,Clear,170,2013-07-03 19:54:00
4:54 PM,84.0,78.1,82,30.20,10.0,South,9.2,-,0.00,Rain,Light Rain,170,2013-07-03 20:54:00
5:54 PM,82.9,77.0,82,30.19,10.0,South,6.9,-,0.00,,Clear,170,2013-07-03 21:54:00
6:54 PM,81.0,75.9,85,30.22,10.0,South,13.8,19.6,N/A,,Clear,180,2013-07-03 22:54:00
7:54 PM,81.0,75.9,85,30.21,10.0,South,8.1,-,N/A,,Scattered Clouds,180,2013-07-03 23:54:00
8:54 PM,79.0,73.9,84,30.21,10.0,South,5.8,-,N/A,,Clear,170,2013-07-04 00:54:00
9:54 PM,78.1,73.0,84,30.24,10.0,South,5.8,-,N/A,,Clear,180,2013-07-04 01:54:00
10:54 PM,77.0,73.0,88,30.25,10.0,South,4.6,-,N/A,,Clear,190,2013-07-04 02:54:00
11:54 PM,75.9,73.0,91,30.25,10.0,South,8.1,-,N/A,,Clear,180,2013-07-04 03:54:00